Tracking 23610 objects as of 19-Sep-2021
HD Live streaming from Space Station
objects crossing your sky now

GGSE 3 DEB

Track GGSE 3 DEB now!
10-day predictions


NORAD ID: 44043
Int'l Code: 1965-016L
Perigee: 885.1 km
Apogee: 910.1 km
Inclination: 70.1 °
Period: 102.8 minutes
Semi major axis: 7268 km
RCS: Unknown
Launch date: March 9, 1965
Source: United States (US)
Launch site: AIR FORCE WESTERN TEST RANGE (AFWTR)

Note: This is SATELLITE DEBRIS
aabbcc
Your satellite tracking list
Your tracking list is empty




NASA's NSSDC Master Catalog

Two Line Element Set (TLE):
1 44043U 65016L   21261.85404582  .00000164  00000-0  14470-3 0  9991
2 44043  70.0763  72.1409 0017252  84.1567 276.1508 14.00964167132879
Source of the keplerian elements: AFSPC